User: anonymous
Location: Vancouver
(49.2500°N, 123.1330°W)
Time: 11:30:50
(UTC-07:00)
Language:

H-2A R/B - Orbit

View from above orbital plane
View from above orbital plane
View from above satellite
View from above satellite

Ground track
Ground track

The orbit data is extracted from the following two-line orbital elements,

1 27601U 02056E   14232.34146161  .00000083  00000-0  45725-4 0  1616
2 27601 098.4801 313.5122 0073717 109.6852 301.5195 14.31397807610162
Epoch (UTC): 20 August 2014 08:11:42
Eccentricity: 0.0073717
inclination: 98.4801°
perigee height: 734 km
apogee height: 840 km
right ascension of ascending node: 313.5122°
argument of perigee: 109.6852°
revolutions per day: 14.31397807
mean anomaly at epoch: 301.5195°
orbit number at epoch: 61016

The dashed part of the orbit path shows where the satellite is in the earth's shadow,  

DLR